When you browse on this site, cookies collect data to enhance your experience and personalize the content and advertising you see.
Visit our Privacy Policy to learn more. By continuing to use the site, you agree to this use of cookies and data.
  • En España
  • Lista de países
  • Para 7 días
  • Temperatura del agua
  • Mapa Satelital
  • El tiempo en el mapa
  • Informadores
  • user-avatar
    Iniciar sesión

    Tiempo cada hora Porech

    Hoy, 26 Junio, Miércoles

    Tiempo Temperatura Precipitaciones Viento Presión Humedad
    00:00 +25°C° 0 mm 2 mps 766 mmHg 76%
    01:00 +24°C° 0 mm 2 mps 766 mmHg 76%
    02:00 +24°C° 0 mm 2 mps 766 mmHg 77%
    03:00 +24°C° 0 mm 2 mps 766 mmHg 77%
    04:00 +24°C° 0 mm 2 mps 765 mmHg 78%
    05:00 +25°C° 0 mm 3 mps 765 mmHg 73%
    06:00 +27°C° 0 mm 3 mps 765 mmHg 69%
    07:00 +29°C° 0 mm 3 mps 765 mmHg 65%
    08:00 +31°C° 0 mm 3 mps 765 mmHg 55%
    09:00 +34°C° 0 mm 3 mps 766 mmHg 45%
    10:00 +37°C° 0 mm 4 mps 766 mmHg 35%
    11:00 +37°C° 0 mm 3 mps 766 mmHg 34%
    12:00 +38°C° 0 mm 3 mps 765 mmHg 33%
    13:00 +38°C° 0 mm 3 mps 765 mmHg 32%
    14:00 +38°C° 0 mm 3 mps 765 mmHg 35%
    15:00 +37°C° 0 mm 3 mps 764 mmHg 37%
    16:00 +36°C° 0 mm 3 mps 764 mmHg 40%
    17:00 +34°C° 0 mm 3 mps 764 mmHg 50%
    18:00 +31°C° 0 mm 2 mps 764 mmHg 60%
    19:00 +29°C° 0 mm 2 mps 764 mmHg 69%
    20:00 +28°C° 0 mm 2 mps 764 mmHg 68%
    21:00 +27°C° 0 mm 2 mps 765 mmHg 68%
    22:00 +27°C° 0 mm 2 mps 765 mmHg 67%
    23:00 +26°C° 0 mm 2 mps 765 mmHg 67%

    Mañana, 27 Junio, Jueves

    Tiempo Temperatura Precipitaciones Viento Presión Humedad
    00:00 +26°C° 0 mm 2 mps 765 mmHg 68%
    01:00 +26°C° 0 mm 3 mps 765 mmHg 68%
    02:00 +26°C° 0 mm 3 mps 764 mmHg 69%
    03:00 +26°C° 0 mm 2 mps 764 mmHg 70%
    04:00 +26°C° 0 mm 2 mps 764 mmHg 71%
    05:00 +28°C° 0 mm 2 mps 763 mmHg 67%
    06:00 +29°C° 0 mm 2 mps 763 mmHg 63%
    07:00 +31°C° 0 mm 2 mps 763 mmHg 59%
    08:00 +34°C° 0 mm 2 mps 763 mmHg 52%
    09:00 +36°C° 0 mm 3 mps 763 mmHg 45%
    10:00 +37°C° 0 mm 3 mps 762 mmHg 38%
    11:00 +37°C° 0 mm 3 mps 762 mmHg 39%
    12:00 +37°C° 0 mm 3 mps 761 mmHg 39%
    13:00 +37°C° 0 mm 3 mps 761 mmHg 39%
    14:00 +37°C° 0 mm 2 mps 761 mmHg 40%
    15:00 +37°C° 0 mm 2 mps 760 mmHg 40%
    16:00 +35°C° 0 mm 1 mps 760 mmHg 41%
    17:00 +34°C° 0 mm 1 mps 760 mmHg 49%
    18:00 +32°C° 0 mm 1 mps 759 mmHg 56%
    19:00 +28°C° 0 mm 0 mps 759 mmHg 64%
    20:00 +29°C° 0 mm 1 mps 759 mmHg 65%
    21:00 +28°C° 0 mm 1 mps 759 mmHg 66%
    22:00 +27°C° 0 mm 1 mps 760 mmHg 66%
    23:00 +27°C° 0 mm 1 mps 760 mmHg 65%

    Pasado mañana, 28 Junio, Viernes

    Tiempo Temperatura Precipitaciones Viento Presión Humedad
    00:00 +27°C° 0 mm 2 mps 760 mmHg 63%
    01:00 +27°C° 0 mm 3 mps 760 mmHg 62%
    02:00 +26°C° 0.1 mm 4 mps 760 mmHg 68%
    03:00 +26°C° 0.1 mm 5 mps 760 mmHg 74%
    04:00 +24°C° 0.1 mm 6 mps 760 mmHg 81%
    05:00 +26°C° 0 mm 5 mps 760 mmHg 73%
    06:00 +27°C° 0 mm 5 mps 760 mmHg 65%
    07:00 +27°C° 0 mm 4 mps 760 mmHg 57%
    08:00 +29°C° 0 mm 4 mps 761 mmHg 51%
    09:00 +32°C° 0 mm 4 mps 761 mmHg 46%
    10:00 +34°C° 0 mm 3 mps 761 mmHg 40%
    11:00 +35°C° 0 mm 3 mps 760 mmHg 41%
    12:00 +35°C° 0 mm 2 mps 760 mmHg 41%
    13:00 +35°C° 0 mm 2 mps 760 mmHg 41%
    14:00 +35°C° 0 mm 2 mps 760 mmHg 42%
    15:00 +34°C° 0 mm 2 mps 760 mmHg 43%
    16:00 +34°C° 0 mm 2 mps 760 mmHg 44%
    17:00 +31°C° 0 mm 2 mps 760 mmHg 51%
    18:00 +30°C° 0 mm 2 mps 760 mmHg 58%
    19:00 +28°C° 0 mm 1 mps 760 mmHg 65%
    20:00 +27°C° 0 mm 2 mps 761 mmHg 66%
    21:00 +26°C° 0 mm 3 mps 761 mmHg 67%
    22:00 +23°C° 0 mm 4 mps 762 mmHg 68%
    23:00 +23°C° 0 mm 5 mps 762 mmHg 67%

    29 Junio, Sábado

    Tiempo Temperatura Precipitaciones Viento Presión Humedad
    00:00 +22°C° 0 mm 6 mps 762 mmHg 66%
    01:00 +22°C° 0 mm 6 mps 762 mmHg 66%
    02:00 +22°C° 0 mm 6 mps 762 mmHg 65%
    03:00 +21°C° 0 mm 6 mps 762 mmHg 64%
    04:00 +21°C° 0 mm 5 mps 762 mmHg 63%
    05:00 +22°C° 0 mm 5 mps 762 mmHg 60%
    06:00 +23°C° 0 mm 4 mps 762 mmHg 57%
    07:00 +26°C° 0 mm 4 mps 762 mmHg 54%
    08:00 +28°C° 0 mm 3 mps 762 mmHg 48%
    09:00 +30°C° 0 mm 3 mps 762 mmHg 43%
    10:00 +34°C° 0 mm 2 mps 763 mmHg 38%
    11:00 +33°C° 0 mm 3 mps 762 mmHg 39%
    12:00 +33°C° 0 mm 3 mps 762 mmHg 40%
    13:00 +32°C° 0 mm 4 mps 762 mmHg 42%
    14:00 +32°C° 0 mm 4 mps 762 mmHg 43%
    15:00 +32°C° 0 mm 4 mps 762 mmHg 44%
    16:00 +32°C° 0 mm 4 mps 762 mmHg 45%
    17:00 +29°C° 0 mm 4 mps 762 mmHg 52%
    18:00 +28°C° 0 mm 3 mps 762 mmHg 59%
    19:00 +27°C° 0 mm 3 mps 762 mmHg 67%
    20:00 +25°C° 0 mm 3 mps 762 mmHg 68%
    21:00 +24°C° 0 mm 3 mps 763 mmHg 70%
    22:00 +23°C° 0 mm 2 mps 763 mmHg 72%
    23:00 +21°C° 0 mm 2 mps 763 mmHg 72%

    30 Junio, Domingo

    Tiempo Temperatura Precipitaciones Viento Presión Humedad
    00:00 +21°C° 0 mm 2 mps 763 mmHg 73%
    01:00 +21°C° 0 mm 2 mps 763 mmHg 73%
    02:00 +21°C° 0 mm 2 mps 763 mmHg 70%
    03:00 +21°C° 0 mm 1 mps 762 mmHg 68%
    04:00 +21°C° 0 mm 1 mps 762 mmHg 65%
    05:00 +23°C° 0 mm 1 mps 762 mmHg 61%
    06:00 +25°C° 0 mm 1 mps 763 mmHg 56%
    07:00 +26°C° 0 mm 2 mps 763 mmHg 52%
    08:00 +29°C° 0 mm 2 mps 763 mmHg 47%
    09:00 +31°C° 0 mm 2 mps 763 mmHg 42%
    10:00 +34°C° 0 mm 2 mps 763 mmHg 37%
    11:00 +33°C° 0 mm 1 mps 763 mmHg 38%
    12:00 +33°C° 0 mm 1 mps 762 mmHg 39%
    13:00 +32°C° 0 mm 1 mps 762 mmHg 41%
    14:00 +32°C° 0 mm 1 mps 762 mmHg 42%
    15:00 +31°C° 0 mm 1 mps 762 mmHg 44%
    16:00 +31°C° 0 mm 1 mps 762 mmHg 45%
    17:00 +30°C° 0 mm 1 mps 762 mmHg 52%
    18:00 +28°C° 0 mm 1 mps 762 mmHg 58%
    19:00 +27°C° 0 mm 1 mps 762 mmHg 65%
    20:00 +26°C° 0 mm 1 mps 762 mmHg 66%
    21:00 +25°C° 0 mm 1 mps 762 mmHg 67%
    22:00 +24°C° 0 mm 1 mps 763 mmHg 68%
    23:00 +24°C° 0 mm 1 mps 763 mmHg 69%

    1 Julio, Lunes

    Tiempo Temperatura Precipitaciones Viento Presión Humedad
    00:00 +24°C° 0 mm 1 mps 762 mmHg 70%
    01:00 +23°C° 0 mm 1 mps 762 mmHg 71%
    02:00 +23°C° 0 mm 1 mps 762 mmHg 73%
    03:00 +23°C° 0 mm 1 mps 762 mmHg 75%
    04:00 +22°C° 0 mm 1 mps 762 mmHg 78%
    05:00 +24°C° 0 mm 1 mps 762 mmHg 73%
    06:00 +24°C° 0 mm 0 mps 761 mmHg 68%
    07:00 +26°C° 0 mm 0 mps 761 mmHg 63%
    08:00 +28°C° 0 mm 0 mps 761 mmHg 58%
    09:00 +31°C° 0 mm 1 mps 761 mmHg 53%
    10:00 +33°C° 0 mm 1 mps 761 mmHg 48%
    11:00 +33°C° 0 mm 1 mps 761 mmHg 47%
    12:00 +34°C° 0 mm 2 mps 761 mmHg 46%
    13:00 +34°C° 0 mm 2 mps 760 mmHg 46%
    14:00 +34°C° 0 mm 2 mps 760 mmHg 47%
    15:00 +33°C° 0 mm 3 mps 760 mmHg 49%
    16:00 +33°C° 0 mm 3 mps 759 mmHg 50%
    17:00 +31°C° 0 mm 3 mps 759 mmHg 58%
    18:00 +29°C° 0 mm 4 mps 759 mmHg 66%
    19:00 +27°C° 0 mm 4 mps 759 mmHg 74%
    20:00 +26°C° 0 mm 4 mps 760 mmHg 79%
    21:00 +23°C° 0 mm 5 mps 760 mmHg 84%
    22:00 +22°C° 0 mm 5 mps 760 mmHg 88%
    23:00 +22°C° 0 mm 5 mps 760 mmHg 87%
    Mostrar más